Location: Oshawa
(43.9000°N, 78.8670°W)
Time: 12:24:52
(UTC-04:00)

CARTOSAT-1 - Visible Passes

Search period start: 28 July 2016 00:00
Search period end: 07 August 2016 00:00
Orbit: 616 x 620 km, 97.9° (Epoch: 28 July)

Date Brightness Start Highest point End Pass type
(mag) Time Alt. Az. Time Alt. Az. Time Alt. Az.
28 Jul 6.1 00:35:50 11° W 00:36:24 12° W 00:37:57 10° WNW visible
28 Jul 5.8 21:39:51 10° ENE 21:41:13 11° ENE 21:42:34 10° NE visible
28 Jul 3.5 23:15:44 55° S 23:16:38 81° WSW 23:20:59 10° NNW visible
29 Jul 5.5 21:55:37 12° E 21:57:47 16° ENE 22:00:28 10° NNE visible
29 Jul 4.0 23:32:45 47° SW 23:33:26 52° W 23:37:41 10° NNW visible
30 Jul 5.0 22:12:39 18° E 22:14:24 23° ENE 22:17:49 10° NNE visible
30 Jul 4.6 23:49:47 33° WSW 23:50:17 34° W 23:54:15 10° NNW visible
31 Jul 4.5 22:29:41 27° ESE 22:31:02 33° ENE 22:34:56 10° N visible
01 Aug 5.3 00:06:49 23° WSW 00:07:10 23° W 00:10:38 10° NW visible
01 Aug 3.9 22:46:43 40° ESE 22:47:44 49° ENE 22:51:55 10° N visible
02 Aug 5.8 00:23:51 16° W 00:24:06 16° W 00:26:45 10° NW visible
02 Aug 3.5 23:03:45 59° SE 23:04:28 75° ENE 23:08:48 10° N visible
03 Aug 6.2 00:40:53 10° W 00:41:03 10° W 00:41:44 10° W visible
03 Aug 5.7 21:43:55 10° E 21:45:45 13° ENE 21:47:35 10° NE visible
03 Aug 3.5 23:20:47 65° SSW 23:21:14 72° WSW 23:25:34 10° NNW visible
04 Aug 5.3 22:00:41 15° E 22:02:19 18° ENE 22:05:15 10° NNE visible
04 Aug 4.2 23:37:49 46° WSW 23:38:03 47° W 23:42:13 10° NNW visible
05 Aug 4.9 22:17:43 22° E 22:18:56 25° ENE 22:22:31 10° NNE visible
05 Aug 4.9 23:54:52 31° W 23:54:54 31° W 23:58:46 10° NNW visible
06 Aug 4.3 22:34:46 33° E 22:35:36 37° ENE 22:39:35 10° N visible
